Showing default

ORESAT0.5, 60525

Orbit data source: Space-Track

ORESAT0.5, 60525 is a payload satellite owned by Portland State (US) in SSO that was launched on Fri, 16 Aug 2024 UTC via an FALCON 9 launch vehicle from the Air Force Western Test Range (AFWTR). Payload-class satellites include a variety of spacecraft equipped with specific instruments for various scientific and technological missions. These include communications satellites like Starlink; space stations such as the ISS; scientific satellites like the Hubble; Earth observation satellites from companies like Planet Labs, Umbra, and HawkEye 360; GPS; miniature CubeSats for education and research; and military/defense satellites.

Loading next visibility...
Identifier
60525, 2024-149BK
Orbit
SSO
Country
Flag of USUS
Related business
Manufacturer
Portland State
Mission
Operational Amateur Technology
Bus & Motor
CUBESAT 1.5U, Unknown motor
Mass
2 kg wet, 2 kg dry
Launch date (UTC)
2024-08-16 (2 years ago)
Launch vehicle
FALCON 9
Launch site
Air Force Western Test Range (AFWTR)
Object type
Payload
Rocket body
Debris
Shape & HBR
Box + 1 Ant, 0.3 m
Radar Cross Section
0.040 m², Medium (>0.1 m² and < 1m²)

Expand to show TLE details & history
Last TLE update: 1 day ago

TLE from 1 day ago
0 ORESAT0.5
1 60525U 24149BK  26191.23243237  .00015999  00000-0  32968-3 0  9997
2 60525  97.3723 277.5988 0005746 180.9142 179.2098 15.45976258106032
Epoch: 2026-07-10T05:34Z
TLE epoch observation values (Epoch: 2026-07-10T05:34:42.156Z)
Latitude
-0.00002°
Longitude
-94.2398°
Altitude
435.549 km
Speed
7.648 km/s
True Right ascension
18h 30m 23s
True Declination
0° 00' 00"
Sunlit
Object was in full shadow at epoch
Visualization orbit readout
Latitude
Unknown
Longitude
Unknown
Altitude
Unknown
Speed
Unknown
Apparent Right ascension
Unknown
Apparent Declination
Unknown
Sunlit
N/A
Visualization observer readout
Local Sidereal Time
02:30:11
Azimuth
Unknown
Elevation
Unknown
Doppler factor
Unknown
Orbital elements
Apogee altitude
429.35 km
Perigee altitude
421.532 km
Semi-major axis
6,803.578 km
Eccentricity
0.00057
Inclination
97.3723°
RAAN
277.5988°
Arg. of periapsis
180.9142°
True anomaly
179.21071°
Mean anomaly
179.2098°
Eccentric anomaly
179.21025°
Mean motion
3.86756 °/min
Orbital period
93.08 mins
BSTAR
0.00032968
Loading maneuver chart data...
Computing Atmospheric mass density...
Loading historical data...
Loading historical data...
Loading historical data...
Loading historical data...
Loading historical data...
Loading historical data...
Loading historical data...

Documentation

Showing up to 5 results
|